This demonstration page uses our WeatherBlox Daily Observations layout. Learn more.

Hourly Observations for March 23, 2020

Temp ( °F °C ) Dew Point ( °F °C ) Humidity (%) Winds ( mph kmh ) Pressure ( in mb ) Visibility ( mi km ) Precip ( " mm )
12:15 am 00:15 Clear 38 3.5 37 2.6 94 94 SSW 8 13 30.08 1019 10 16.0934 0 0
12:35 am 00:35 Clear 38 3.5 37 2.7 95 95 SSW 10 17 30.08 1019 10 16.0934 0 0
12:55 am 00:55 Clear 38 3.5 37 2.7 95 95 SW 7 11 30.08 1019 10 16.0934 0 0
1:15 am 01:15 Clear 38 3.3 37 2.5 95 95 SSW 8 13 30.08 1019 10 16.0934 0 0
1:35 am 01:35 Clear 38 3.2 37 2.5 95 95 SSW 8 13 30.08 1019 7 11.26538 0 0
1:55 am 01:55 Clear 37 2.7 36 2 95 95 SSW 6 9 30.09 1019 7 11.26538 0 0
2:15 am 02:15 Partly Cloudy with Mist and Fog 36 2.1 35 1.5 96 96 S 3 6 30.11 1019 5 8.0467 0 0
2:35 am 02:35 Cloudy with Fog 36 2 35 1.5 97 97 S 5 7 30.1 1019 0.5 0.80467 0 0
2:55 am 02:55 Cloudy with Fog 35 1.9 35 1.4 97 97 SSW 3 6 30.1 1019 0.25 0.402335 0 0
3:15 am 03:15 Cloudy with Fog 35 1.5 34 1.1 97 97 SSW 3 6 30.1 1019 0.25 0.402335 0 0
3:35 am 03:35 Cloudy with Fog 34 1.3 34 1 98 98 SSW 6 9 30.1 1019 0.5 0.80467 0 0
3:55 am 03:55 Cloudy with Mist and Fog 34 1.1 33 0.7 97 97 SSW 6 9 30.1 1019 1.25 2.011675 0 0
4:15 am 04:15 Partly Cloudy with Mist and Fog 33 0.8 33 0.5 98 98 SSW 3 6 30.1 1019 2.5 4.02335 0 0
4:35 am 04:35 Cloudy with Fog 32 -0.1 31 -0.3 99 99 Calm 30.12 1020 0.25 0.402335 0 0
4:55 am 04:55 Cloudy with Fog 32 0 32 -0.1 99 99 Calm 30.11 1020 0.5 0.80467 0 0
5:15 am 05:15 Cloudy with Freezing Fog 32 -0.2 31 -0.5 98 98 Calm 30.12 1020 0.25 0.402335 0 0
5:35 am 05:35 Cloudy with Fog 32 0 32 -0.1 99 99 NNW 3 6 30.12 1020 0.25 0.402335 0 0
5:55 am 05:55 Cloudy with Fog 32 0.1 32 0 99 99 Calm 30.13 1020 0.25 0.402335 0 0
6:15 am 06:15 Cloudy with Fog 33 0.3 32 0 98 98 Calm 30.13 1020 0.25 0.402335 0 0
6:35 am 06:35 Cloudy with Fog 33 0.5 32 0.2 98 98 NNW 7 11 30.14 1021 0.5 0.80467 0 0
6:55 am 06:55 Cloudy with Fog 33 0.5 32 0.1 97 97 NNW 6 9 30.15 1021 0.25 0.402335 0 0
7:15 am 07:15 Cloudy with Fog 33 0.5 32 0.1 97 97 N 6 9 30.15 1021 0.25 0.402335 0 0
7:35 am 07:35 Cloudy with Fog 33 0.5 32 0.2 98 98 NNW 3 6 30.16 1021 0.5 0.80467 0 0
7:55 am 07:55 Cloudy with Fog 33 0.7 33 0.5 99 99 N 6 9 30.16 1021 0.25 0.402335 0 0
8:15 am 08:15 Cloudy with Fog 34 1.1 33 0.8 98 98 NNW 7 11 30.15 1021 0.25 0.402335 0 0
8:35 am 08:35 Cloudy with Fog 35 1.8 35 1.5 98 98 N 8 13 30.15 1021 0.25 0.402335 0 0
8:55 am 08:55 Cloudy with Fog 37 2.5 36 2.2 98 98 N 10 17 30.14 1021 0.25 0.402335 0 0
9:15 am 09:15 Cloudy with Fog 37 2.7 36 2.4 98 98 N 8 13 30.14 1021 0.25 0.402335 0 0
9:35 am 09:35 Cloudy with Fog 37 2.8 37 2.5 98 98 N 9 15 30.14 1021 0.25 0.402335 0 0
9:55 am 09:55 Cloudy with Fog 38 3.1 37 2.8 98 98 N 9 15 30.14 1021 0.25 0.402335 0 0
10:15 am 10:15 Cloudy with Fog 38 3.5 38 3.1 97 97 N 6 9 30.13 1020 0.25 0.402335 0 0
10:35 am 10:35 Cloudy with Fog 38 3.6 38 3.4 99 99 N 8 13 30.13 1020 0.25 0.402335 0 0
10:55 am 10:55 Cloudy with Fog 39 4 38 3.6 97 97 N 8 13 30.13 1020 0.5 0.80467 0 0
11:15 am 11:15 Cloudy with Mist and Fog 40 4.4 39 4 97 97 N 6 9 30.13 1020 0.75 1.207005 0 0
11:35 am 11:35 Cloudy with Mist and Fog 40 4.6 40 4.3 98 98 NNE 7 11 30.13 1020 1 1.60934 0 0
11:55 am 11:55 Cloudy with Mist and Fog 41 4.9 40 4.6 98 98 NNE 5 7 30.13 1020 2 3.21868 0 0
12:15 pm 12:15 Cloudy with Mist and Fog 41 5.1 41 4.9 99 99 NNE 3 6 30.13 1020 5 8.0467 0 0
12:35 pm 12:35 Cloudy 42 5.4 41 5.1 98 98 NE 3 6 30.11 1020 7 11.26538 0 0
12:55 pm 12:55 Cloudy 42 5.3 41 5 98 98 Calm 30.12 1020 7 11.26538 0 0
1:15 pm 13:15 Cloudy 42 5.7 42 5.5 99 99 SE 5 7 30.09 1019 10 16.0934 0 0
1:35 pm 13:35 Cloudy 43 5.9 42 5.7 99 99 SE 3 6 30.08 1019 10 16.0934 0 0
1:55 pm 13:55 Cloudy 43 6.3 43 5.9 97 97 Calm 30.08 1018 10 16.0934 0 0
2:15 pm 14:15 Cloudy 44 6.5 43 6.1 97 97 Calm 30.05 1018 10 16.0934 0 0
2:35 pm 14:35 Cloudy 45 7 44 6.6 97 97 ENE 3 6 30.03 1017 10 16.0934 0 0
2:55 pm 14:55 Mostly Cloudy 48 8.7 44 6.9 89 89 Calm 29.99 1016 10 16.0934 0 0
3:15 pm 15:15 Sunny 51 10.4 42 5.8 73 73 Calm 29.97 1015 10 16.0934 0 0
3:35 pm 15:35 Sunny 51 10.8 42 5.8 71 71 Calm 29.97 1015 10 16.0934 0 0
3:55 pm 15:55 Sunny 53 11.5 42 5.5 67 67 E 5 7 29.95 1014 10 16.0934 0 0
4:15 pm 16:15 Sunny 54 12 42 5.6 65 65 ESE 6 9 29.94 1014 10 16.0934 0 0
4:35 pm 16:35 Sunny 55 12.5 41 5.2 61 61 E 5 7 29.92 1013 10 16.0934 0 0
4:55 pm 16:55 Partly Cloudy 55 13 41 5.1 59 59 SE 3 6 29.91 1013 10 16.0934 0 0
5:15 pm 17:15 Partly Cloudy 55 13 41 5 59 59 E 6 9 29.91 1013 10 16.0934 0 0
5:35 pm 17:35 Mostly Cloudy 56 13.1 41 5.1 59 59 ESE 7 11 29.9 1012 10 16.0934 0 0
5:55 pm 17:55 Cloudy 57 13.7 40 4.5 54 54 ESE 8 13 29.88 1012 10 16.0934 0 0
6:15 pm 18:15 Mostly Cloudy 56 13.5 41 4.9 56 56 ESE 8 13 29.88 1012 10 16.0934 0 0
6:35 pm 18:35 Cloudy 56 13.5 41 5 57 57 ESE 8 13 29.88 1012 10 16.0934 0 0
6:55 pm 18:55 Cloudy 56 13.5 41 5 57 57 ESE 6 9 29.88 1012 10 16.0934 0 0
7:15 pm 19:15 Cloudy 55 12.7 40 4.7 59 59 ESE 7 11 29.89 1012 10 16.0934 0 0
7:35 pm 19:35 Mostly Cloudy 54 12 41 5.2 63 63 SE 7 11 29.9 1012 10 16.0934 0 0
7:55 pm 19:55 Cloudy 51 10.8 42 5.5 70 70 ESE 7 11 29.91 1013 10 16.0934 0 0
8:15 pm 20:15 Cloudy 50 9.8 42 5.3 74 74 ESE 8 13 29.91 1013 10 16.0934 0 0
8:35 pm 20:35 Partly Cloudy 49 9.5 41 5 74 74 ESE 9 15 29.92 1013 10 16.0934 0 0
8:55 pm 20:55 Clear 47 8.6 41 4.8 77 77 E 9 15 29.93 1013 10 16.0934 0 0
9:15 pm 21:15 Clear 46 7.8 40 4.6 80 80 ESE 9 15 29.93 1014 10 16.0934 0 0
9:35 pm 21:35 Clear 47 8.5 42 5.6 82 82 ESE 10 17 29.94 1014 10 16.0934 0 0
9:55 pm 21:55 Clear 49 9.4 44 6.6 83 83 SE 12 19 29.93 1013 10 16.0934 0 0
10:15 pm 22:15 Clear 48 9.1 43 6.2 82 82 SSE 10 17 29.93 1014 10 16.0934 0 0
10:35 pm 22:35 Clear 48 8.8 43 6.1 83 83 SSE 9 15 29.93 1014 10 16.0934 0 0
10:55 pm 22:55 Clear 47 8.1 43 5.9 86 86 SSE 12 19 29.92 1013 10 16.0934 0 0
11:15 pm 23:15 Clear 46 7.7 42 5.5 86 86 SSE 8 13 29.91 1013 10 16.0934 0 0
11:35 pm 23:35 Clear 45 7.1 42 5.4 89 89 SSE 8 13 29.92 1013 10 16.0934 0 0
11:55 pm 23:55 Clear 44 6.6 41 4.9 89 89 SSE 6 9 29.92 1013 10 16.0934 0 0

Powered by AerisWeather